| time (UTC) | temp F | wind direction | speed knots | gust knots | rain 1hr in | rain 24hr in | rain mn in | humidity % | barometer mb |
| 20260507212319 | 54 | 43 | 0.0 | 0.0 | 0.00 | 0.00 | 0.00 | 82 | 1017.0 |
| 20260507211242 | 54 | 43 | 0.0 | 0.0 | 0.00 | 0.00 | 0.00 | 81 | 1017.0 |
| 20260507210252 | 54 | 43 | 0.0 | 0.0 | 0.00 | 0.00 | 0.00 | 81 | 1017.0 |
| 20260507205253 | 54 | 43 | 0.0 | 0.0 | 0.00 | 0.00 | 0.00 | 79 | 1017.0 |
| 20260507204229 | 55 | 43 | 0.0 | 0.0 | 0.00 | 0.00 | 0.00 | 78 | 1016.9 |
| 20260507203230 | 55 | 43 | 0.0 | 0.0 | 0.00 | 0.00 | 0.00 | 78 | 1016.9 |
| 20260507202249 | 55 | 43 | 0.0 | 0.0 | 0.00 | 0.00 | 0.00 | 77 | 1016.9 |
| 20260507201259 | 55 | 43 | 0.0 | 0.0 | 0.00 | 0.00 | 0.00 | 75 | 1016.9 |
| 20260507200238 | 55 | 43 | 0.0 | 0.0 | 0.00 | 0.00 | 0.00 | 73 | 1016.7 |
| 20260507195238 | 55 | 43 | 0.0 | 0.9 | 0.00 | 0.00 | 0.00 | 73 | 1016.7 |
| 20260507194246 | 56 | 43 | 0.0 | 1.7 | 0.00 | 0.00 | 0.00 | 72 | 1016.5 |
| 20260507193240 | 56 | 44 | 0.0 | 0.9 | 0.00 | 0.00 | 0.00 | 72 | 1016.4 |
| 20260507192253 | 56 | 39 | 0.0 | 1.7 | 0.00 | 0.00 | 0.00 | 71 | 1016.4 |
| 20260507191305 | 57 | 39 | 0.9 | 2.6 | 0.00 | 0.00 | 0.00 | 71 | 1016.3 |
| 20260507190257 | 57 | 17 | 0.9 | 1.7 | 0.00 | 0.00 | 0.00 | 70 | 1016.3 |
| 20260507185248 | 57 | 17 | 0.9 | 2.6 | 0.00 | 0.00 | 0.00 | 69 | 1016.3 |
| 20260507184228 | 57 | 44 | 0.0 | 1.7 | 0.00 | 0.00 | 0.00 | 69 | 1016.2 |
| 20260507183228 | 58 | 38 | 0.9 | 3.5 | 0.00 | 0.00 | 0.00 | 68 | 1016.2 |
| 20260507182252 | 58 | 17 | 1.7 | 4.3 | 0.00 | 0.00 | 0.00 | 68 | 1016.3 |
| 20260507181236 | 58 | 355 | 2.6 | 4.3 | 0.00 | 0.00 | 0.00 | 68 | 1016.3 |
| 20260507180236 | 58 | 34 | 2.6 | 3.5 | 0.00 | 0.00 | 0.00 | 67 | 1016.3 |
| 20260507175307 | 58 | 339 | 1.7 | 3.5 | 0.00 | 0.00 | 0.00 | 67 | 1016.3 |
| 20260507174227 | 58 | 40 | 0.9 | 3.5 | 0.00 | 0.00 | 0.00 | 67 | 1016.3 |
| 20260507173227 | 59 | 48 | 1.7 | 4.3 | 0.00 | 0.00 | 0.00 | 65 | 1016.2 |
| 20260507172248 | 59 | 37 | 1.7 | 3.5 | 0.00 | 0.00 | 0.00 | 66 | 1016.2 |
| 20260507171232 | 59 | 355 | 2.6 | 5.2 | 0.00 | 0.00 | 0.00 | 66 | 1016.2 |
| 20260507170229 | 59 | 34 | 3.5 | 5.2 | 0.00 | 0.00 | 0.00 | 65 | 1016.3 |
| 20260507165240 | 59 | 71 | 1.7 | 4.3 | 0.00 | 0.00 | 0.00 | 65 | 1016.2 |
| 20260507164239 | 59 | 27 | 1.7 | 4.3 | 0.00 | 0.00 | 0.00 | 65 | 1016.3 |
| 20260507163236 | 59 | 30 | 1.7 | 7.0 | 0.00 | 0.00 | 0.00 | 64 | 1016.2 |
| 20260507162257 | 59 | 30 | 0.9 | 4.3 | 0.00 | 0.00 | 0.00 | 64 | 1016.2 |
| 20260507161242 | 59 | 15 | 3.5 | 5.2 | 0.00 | 0.00 | 0.00 | 63 | 1016.3 |
| 20260507160245 | 60 | 42 | 2.6 | 5.2 | 0.00 | 0.00 | 0.00 | 64 | 1016.3 |
| 20260507155252 | 60 | 360 | 2.6 | 5.2 | 0.00 | 0.00 | 0.00 | 64 | 1016.2 |
| 20260507154231 | 60 | 24 | 0.9 | 5.2 | 0.00 | 0.00 | 0.00 | 65 | 1016.2 |
| 20260507153231 | 59 | 29 | 2.6 | 7.0 | 0.00 | 0.00 | 0.00 | 64 | 1016.1 |
| 20260507152313 | 59 | 5 | 2.6 | 5.2 | 0.00 | 0.00 | 0.00 | 64 | 1016.2 |
| 20260507151235 | 59 | 11 | 3.5 | 5.2 | 0.00 | 0.00 | 0.00 | 64 | 1016.3 |
| 20260507150259 | 59 | 30 | 3.5 | 5.2 | 0.00 | 0.00 | 0.00 | 63 | 1016.2 |
| 20260507145301 | 59 | 9 | 3.5 | 5.2 | 0.00 | 0.00 | 0.00 | 62 | 1016.1 |
| 20260507144246 | 59 | 16 | 1.7 | 7.0 | 0.00 | 0.00 | 0.00 | 64 | 1016.2 |
| 20260507143246 | 59 | 51 | 2.6 | 7.8 | 0.00 | 0.00 | 0.00 | 63 | 1016.2 |
| 20260507142308 | 59 | 24 | 2.6 | 6.1 | 0.00 | 0.00 | 0.00 | 62 | 1016.2 |
| 20260507141253 | 59 | 26 | 2.6 | 6.1 | 0.00 | 0.00 | 0.00 | 61 | 1016.3 |
| 20260507140234 | 60 | 5 | 1.7 | 4.3 | 0.00 | 0.00 | 0.00 | 62 | 1016.3 |
| 20260507135234 | 60 | 336 | 1.7 | 5.2 | 0.00 | 0.00 | 0.00 | 63 | 1016.4 |
| 20260507134234 | 60 | 355 | 2.6 | 4.3 | 0.00 | 0.00 | 0.00 | 62 | 1016.4 |
| 20260507133305 | 60 | 5 | 1.7 | 4.3 | 0.00 | 0.00 | 0.00 | 62 | 1016.4 |
| 20260507132307 | 60 | 350 | 1.7 | 7.0 | 0.00 | 0.00 | 0.00 | 64 | 1016.4 |
| 20260507131229 | 60 | 355 | 3.5 | 7.8 | 0.00 | 0.00 | 0.00 | 62 | 1016.4 |
| 20260507130232 | 61 | 42 | 3.5 | 7.8 | 0.00 | 0.00 | 0.00 | 64 | 1016.4 |
| 20260507125228 | 61 | 338 | 3.5 | 7.8 | 0.00 | 0.00 | 0.00 | 63 | 1016.4 |
| 20260507124240 | 61 | 351 | 3.5 | 7.8 | 0.00 | 0.00 | 0.00 | 62 | 1016.3 |
| 20260507123240 | 61 | 294 | 2.6 | 4.3 | 0.00 | 0.00 | 0.00 | 60 | 1016.3 |
| 20260507122248 | 61 | 333 | 0.9 | 3.5 | 0.00 | 0.00 | 0.00 | 57 | 1016.4 |
| 20260507121241 | 61 | 30 | 1.7 | 4.3 | 0.00 | 0.00 | 0.00 | 58 | 1016.3 |
| 20260507120242 | 61 | 24 | 0.9 | 4.3 | 0.00 | 0.00 | 0.00 | 62 | 1016.2 |
| 20260507115243 | 61 | 346 | 0.9 | 2.6 | 0.00 | 0.00 | 0.00 | 57 | 1016.2 |
| 20260507114250 | 61 | 44 | 2.6 | 4.3 | 0.00 | 0.00 | 0.00 | 61 | 1016.2 |
| 20260507113228 | 60 | 97 | 0.0 | 2.6 | 0.00 | 0.00 | 0.00 | 59 | 1016.3 |
| 20260507112300 | 60 | 55 | 0.9 | 1.7 | 0.00 | 0.00 | 0.00 | 61 | 1016.4 |
| 20260507111253 | 61 | 97 | 0.9 | 7.0 | 0.00 | 0.00 | 0.00 | 62 | 1016.4 |
| 20260507110232 | 63 | 18 | 1.7 | 7.0 | 0.00 | 0.00 | 0.00 | 57 | 1016.5 |
| 20260507105232 | 63 | 30 | 2.6 | 5.2 | 0.00 | 0.00 | 0.00 | 60 | 1016.3 |
| 20260507104242 | 60 | 131 | 1.7 | 7.0 | 0.00 | 0.00 | 0.00 | 63 | 1016.3 |
| 20260507103241 | 61 | 36 | 2.6 | 5.2 | 0.00 | 0.00 | 0.00 | 65 | 1016.3 |
| 20260507102307 | 61 | 120 | 1.7 | 4.3 | 0.00 | 0.00 | 0.00 | 64 | 1016.4 |
| 20260507101244 | 61 | 70 | 0.0 | 3.5 | 0.00 | 0.00 | 0.00 | 65 | 1016.4 |
| 20260507100246 | 62 | 67 | 0.9 | 5.2 | 0.00 | 0.00 | 0.00 | 65 | 1016.3 |
| 20260507095252 | 60 | 350 | 1.7 | 3.5 | 0.00 | 0.00 | 0.00 | 69 | 1016.2 |
| 20260507094229 | 60 | 94 | 2.6 | 5.2 | 0.00 | 0.00 | 0.00 | 71 | 1016.2 |
| 20260507093229 | 59 | 91 | 0.9 | 2.6 | 0.00 | 0.00 | 0.00 | 71 | 1016.2 |
| 20260507092252 | 59 | 78 | 1.7 | 4.3 | 0.00 | 0.00 | 0.00 | 73 | 1016.2 |
| 20260507091235 | 58 | 32 | 2.6 | 4.3 | 0.00 | 0.00 | 0.00 | 72 | 1016.2 |
| 20260507090235 | 57 | 75 | 1.7 | 4.3 | 0.00 | 0.00 | 0.00 | 72 | 1016.2 |
| 20260507085245 | 57 | 19 | 1.7 | 4.3 | 0.00 | 0.00 | 0.00 | 71 | 1016.1 |
| 20260507084245 | 57 | 97 | 0.9 | 2.6 | 0.00 | 0.00 | 0.00 | 73 | 1016.1 |
| 20260507083312 | 55 | 31 | 2.6 | 5.2 | 0.00 | 0.00 | 0.00 | 77 | 1016.1 |
| 20260507082243 | 55 | 15 | 2.6 | 5.2 | 0.00 | 0.00 | 0.00 | 78 | 1016.1 |
| 20260507081313 | 55 | 26 | 2.6 | 7.0 | 0.00 | 0.00 | 0.00 | 78 | 1016.1 |
| 20260507080253 | 54 | 355 | 2.6 | 4.3 | 0.00 | 0.00 | 0.00 | 78 | 1015.9 |
| 20260507075229 | 54 | 9 | 1.7 | 3.5 | 0.00 | 0.04 | 0.00 | 81 | 1015.9 |
| 20260507074238 | 54 | 30 | 0.9 | 3.5 | 0.00 | 0.04 | 0.00 | 83 | 1015.8 |
| 20260507073237 | 53 | 46 | 1.7 | 3.5 | 0.00 | 0.04 | 0.00 | 84 | 1015.8 |
| 20260507072256 | 53 | 34 | 2.6 | 4.3 | 0.00 | 0.04 | 0.00 | 85 | 1015.6 |
| 20260507071230 | 52 | 41 | 0.9 | 3.5 | 0.00 | 0.04 | 0.00 | 86 | 1015.6 |
| 20260507070255 | 52 | 19 | 2.6 | 4.3 | 0.00 | 0.04 | 0.00 | 86 | 1015.6 |
| 20260507065231 | 51 | 5 | 1.7 | 5.2 | 0.00 | 0.04 | 0.00 | 87 | 1015.5 |
| 20260507064230 | 51 | 19 | 3.5 | 5.2 | 0.00 | 0.04 | 0.00 | 87 | 1015.5 |
| 20260507063230 | 51 | 26 | 2.6 | 4.3 | 0.00 | 0.04 | 0.00 | 87 | 1015.5 |
| 20260507062246 | 51 | 36 | 0.9 | 3.5 | 0.00 | 0.04 | 0.00 | 87 | 1015.5 |
| 20260507061226 | 51 | 15 | 1.7 | 5.2 | 0.00 | 0.04 | 0.00 | 88 | 1015.4 |
| 20260507060255 | 51 | 5 | 2.6 | 4.3 | 0.00 | 0.04 | 0.00 | 89 | 1015.4 |
| 20260507055251 | 50 | 33 | 2.6 | 3.5 | 0.00 | 0.04 | 0.00 | 89 | 1015.3 |
| 20260507054228 | 50 | 32 | 2.6 | 3.5 | 0.00 | 0.04 | 0.00 | 90 | 1015.0 |
| 20260507053238 | 50 | 15 | 1.7 | 3.5 | 0.00 | 0.04 | 0.00 | 91 | 1015.1 |
| 20260507052249 | 50 | 12 | 0.9 | 2.6 | 0.00 | 0.04 | 0.00 | 91 | 1015.0 |
| 20260507051239 | 50 | 20 | 0.0 | 1.7 | 0.00 | 0.04 | 0.00 | 91 | 1014.8 |
| 20260507050240 | 49 | 20 | 0.0 | 0.0 | 0.00 | 0.04 | 0.00 | 91 | 1014.8 |
| 20260507045239 | 49 | 20 | 0.0 | 0.0 | 0.00 | 0.04 | 0.00 | 91 | 1014.7 |
| 20260507044238 | 50 | 20 | 0.0 | 0.9 | 0.00 | 0.04 | 0.00 | 91 | 1014.6 |
| 20260507043247 | 50 | 20 | 0.0 | 0.9 | 0.00 | 0.04 | 0.00 | 91 | 1014.5 |
| 20260507042259 | 50 | 20 | 0.0 | 0.9 | 0.00 | 0.04 | 0.00 | 90 | 1014.4 |
| 20260507041239 | 50 | 20 | 0.0 | 1.7 | 0.00 | 0.04 | 0.00 | 90 | 1014.4 |
| 20260507040251 | 50 | 20 | 0.0 | 0.9 | 0.00 | 0.04 | 0.00 | 90 | 1014.3 |
| 20260507035228 | 50 | 20 | 0.0 | 0.9 | 0.00 | 0.04 | 0.00 | 90 | 1014.2 |
| 20260507034258 | 50 | 20 | 0.0 | 0.9 | 0.00 | 0.04 | 0.00 | 89 | 1014.1 |
| 20260507033239 | 50 | 20 | 0.0 | 0.0 | 0.00 | 0.04 | 0.00 | 89 | 1014.1 |
| 20260507032259 | 50 | 20 | 0.0 | 0.0 | 0.00 | 0.04 | 0.00 | 89 | 1014.1 |
| 20260507031244 | 50 | 20 | 0.0 | 0.0 | 0.00 | 0.04 | 0.00 | 89 | 1014.1 |
| 20260507030314 | 50 | 20 | 0.0 | 0.0 | 0.00 | 0.04 | 0.00 | 88 | 1014.0 |
| 20260507025254 | 50 | 20 | 0.0 | 0.9 | 0.00 | 0.04 | 0.00 | 88 | 1014.0 |
| 20260507024235 | 50 | 20 | 0.0 | 0.9 | 0.00 | 0.04 | 0.00 | 88 | 1013.9 |
| 20260507023242 | 50 | 20 | 0.0 | 0.9 | 0.00 | 0.04 | 0.00 | 87 | 1013.9 |
| 20260507022252 | 50 | 20 | 0.0 | 0.0 | 0.00 | 0.04 | 0.00 | 88 | 1013.9 |
| 20260507021236 | 50 | 20 | 0.0 | 0.0 | 0.00 | 0.04 | 0.00 | 87 | 1013.8 |
| 20260507020244 | 50 | 20 | 0.0 | 0.9 | 0.00 | 0.04 | 0.00 | 87 | 1013.8 |
| 20260507015245 | 50 | 20 | 0.0 | 0.9 | 0.00 | 0.04 | 0.00 | 87 | 1013.7 |
| 20260507014244 | 51 | 20 | 0.0 | 0.9 | 0.00 | 0.04 | 0.00 | 86 | 1013.6 |
| 20260507013253 | 51 | 20 | 0.0 | 0.9 | 0.00 | 0.04 | 0.00 | 85 | 1013.7 |
| 20260507012245 | 51 | 20 | 0.0 | 0.9 | 0.00 | 0.04 | 0.00 | 85 | 1013.7 |
| 20260507011229 | 51 | 20 | 0.0 | 0.0 | 0.00 | 0.04 | 0.00 | 84 | 1013.6 |
| 20260507010231 | 51 | 20 | 0.0 | 0.0 | 0.00 | 0.04 | 0.00 | 83 | 1013.6 |
| 20260507005300 | 51 | 20 | 0.0 | 0.9 | 0.00 | 0.04 | 0.00 | 82 | 1013.5 |
| 20260507004240 | 51 | 20 | 0.0 | 0.9 | 0.00 | 0.04 | 0.00 | 82 | 1013.7 |
| 20260507003251 | 51 | 20 | 0.0 | 0.9 | 0.00 | 0.04 | 0.00 | 81 | 1013.7 |
| 20260507002244 | 51 | 20 | 0.0 | 0.0 | 0.00 | 0.04 | 0.00 | 79 | 1013.5 |
| 20260507001228 | 51 | 20 | 0.0 | 1.7 | 0.00 | 0.04 | 0.00 | 79 | 1013.4 |
| 20260507000236 | 51 | 355 | 0.9 | 2.6 | 0.00 | 0.04 | 0.00 | 79 | 1013.5 |
| 20260506235234 | 51 | 360 | 0.9 | 1.7 | 0.00 | 0.04 | 0.00 | 79 | 1013.3 |
| 20260506234234 | 51 | 360 | 0.0 | 1.7 | 0.00 | 0.04 | 0.00 | 78 | 1013.4 |
| 20260506233229 | 51 | 360 | 0.0 | 1.7 | 0.00 | 0.04 | 0.00 | 78 | 1013.3 |
| 20260506232309 | 51 | 360 | 0.0 | 1.7 | 0.00 | 0.04 | 0.00 | 78 | 1013.2 |
| 20260506231230 | 51 | 355 | 0.9 | 2.6 | 0.00 | 0.04 | 0.00 | 78 | 1013.2 |
| 20260506230232 | 52 | 360 | 0.9 | 1.7 | 0.00 | 0.04 | 0.00 | 77 | 1013.1 |
| 20260506225232 | 52 | 20 | 0.0 | 0.9 | 0.00 | 0.04 | 0.00 | 77 | 1012.9 |
| 20260506224302 | 52 | 20 | 0.9 | 3.5 | 0.00 | 0.04 | 0.00 | 77 | 1012.9 |
| 20260506223240 | 52 | 14 | 0.9 | 2.6 | 0.00 | 0.04 | 0.00 | 77 | 1012.8 |
| 20260506222305 | 52 | 340 | 0.9 | 2.6 | 0.00 | 0.04 | 0.00 | 78 | 1012.9 |
| 20260506221302 | 52 | 13 | 1.7 | 2.6 | 0.00 | 0.04 | 0.00 | 78 | 1012.7 |
| 20260506220251 | 52 | 360 | 0.9 | 3.5 | 0.00 | 0.04 | 0.00 | 77 | 1012.8 |
| 20260506215230 | 52 | 26 | 0.9 | 2.6 | 0.00 | 0.04 | 0.01 | 77 | 1012.7 |
| 20260506214232 | 52 | 30 | 0.9 | 2.6 | 0.00 | 0.04 | 0.01 | 77 | 1012.7 |
| 20260506213303 | 52 | 36 | 0.9 | 3.5 | 0.00 | 0.04 | 0.01 | 77 | 1012.7 |